Weather in Muszyna

Poland     49°21′31″N   20°53′31″E
temp.,
°C
wind,
m/s
gust,
m/s
humid.,
%
clouds,
%
prec.,
mm/h
press.,
hPa
HPBL,
m
19 september, sun
sun1923:00+8w388895 0.0 1012300
02:00+10nw3889100 0.3 1011713
05:00+8nw21097100 0.8 10131003
08:00+7wnw3119198 0.9 1013996
11:00+7wnw3991100 0.1 10141032
14:00+8wnw388698 0.1 1015790
17:00+9nw377996 0.0 1014769
20:00+6wnw259474 0.0 1015244
20 september, mon
mon2023:00+6wnw259092 0.0 1016201
02:00+7nw268694 0.0 1016382
05:00+5nw249587 0.0 1016316
08:00+6n2591100 0.1 1017508
11:00+7nnw3777100 0.1 10191004
14:00+8nw476694 0.1 10191055
17:00+8nnw477095 0.0 10191039
20:00+7nnw497198 0.0 10211053
21 september, tue
tue2123:00+7nnw386997 0.0 1022997
02:00+7nnw376793 0.0 1023708
05:00+3nnw22855 0.0 102432
08:00+5nw258110 0.0 1025306
11:00+9nnw585844 0.0 10251232
14:00+11nnw46514 0.0 10241386
17:00+9n356076 0.0 1025974
20:00+4nw2286100 0.0 102721
22 september, wed
wed2223:00+5wnw2280100 0.0 102632
02:00+6wnw2282100 0.1 102559
05:00+6nw2396100 0.9 1024193
08:00+5nw1796100 3.3 10241009
11:00+6nnw2692100 0.4 1025987
14:00+5wnw2695100 0.8 1024744
17:00+6w1394100 0.3 1023311
20:00+6wnw1297100 0.6 1023120
23 september, thu
thu2323:00+5w229871 0.0 102287
02:00+5wsw1197100 0.1 102143
05:00+6wsw1296100 0.1 102083
08:00+7sw239259 0.1 1018150
11:00+9ssw2384100 0.0 1016350
14:00+13ssw3561100 0.0 1013917
17:00+13wsw1270100 0.1 101088
20:00+10wnw2576100 0.1 1011216